User: anonymous   Login
Location: Newark
(51.0967°N, 24.7917°E)
Time: 12:44:41
(UTC+00:00)
Language:

STARLINK-1288 - Orbit

View from above orbital plane
View from above orbital plane
View from above satellite
View from above satellite

Ground track
Ground track

The orbit data is extracted from the following two-line orbital elements,

1 45372U 20019N   20188.91667824 -.00028242 +00000-0 -19264-2 0  9999
2 45372 052.9992 107.1703 0001639 093.1029 203.3083 15.05587899001750
Epoch (UTC): 06 July 2020 22:00:01
Eccentricity: 0.0001639
inclination: 52.9992°
perigee height: 548 km
apogee height: 551 km
right ascension of ascending node: 107.1703°
argument of perigee: 93.1029°
revolutions per day: 15.05587899
mean anomaly at epoch: 203.3083°
orbit number at epoch: 175

The dashed part of the orbit path shows where the satellite is in the earth's shadow,  

DLR